Location: Unspecified
(0.0000°N, 0.0000°E)
Time: 21:44:20
(UTC+00:00)

Tiros 1 - Pass Details

Date: 22 October 2021
Orbit: 630 x 664 km, 48.4° (Epoch: 04 December)

Event Time Altitude Azimuth Distance (km) Brightness Sun altitude
Rises 18:28:46 0° 346° (NNW) 2,902 10.5 -10.9°
Reaches altitude 10° 18:31:36 10° 3° (N) 1,994 9.5 -11.6°
Maximum altitude 18:34:59 20° 50° (NE) 1,441 8.4 -12.4°
Enters shadow 18:36:10 18° 71° (ENE) 1,521 8.4 -12.7°
Drops below altitude 10° 18:38:22 10° 98° (E) 1,998 - -13.2°
Sets 18:41:11 0° 115° (ESE) 2,909 - -13.9°
